Date String (YYYY-MM-DD hh:mm:ss) UTC,Instrument flags,Ambient pressure (hPa),Sample flow (lpm),Bypass flow (lpm),Sample temperature (°C),Ambient temperature (°C),ASC tube jacket temperature (°C),LED temperature (°C),Box temperature (°C),Sample RH (%),Span deviation,Mass concentration (μg/m³),Mass concentration (μg/m³),Mass concentration (μg/m³)
DateTimeUTC,F1_M11,P_M11,Q1_M11,Q2_M11,T1_M11,T2_M11,T3_M11,T4_M11,T5_M11,U1_M11,ZSPAN_M11,X0_M11,X2_M11,X1_M11
2021-12-07 07:00:00,,0817.4,5.01,0.00,21.8,22.6,00.0,30.8,23.7,09.7,0000.0,0020.92,0005.81,0003.36
2021-12-07 07:01:00,,0817.4,4.99,0.00,21.8,22.2,00.0,30.8,23.6,10.4,0000.0,0019.33,0005.52,0003.23
2021-12-07 07:02:00,,0817.5,4.99,0.00,21.8,22.0,00.0,30.8,23.5,10.0,0000.0,0018.31,0005.28,0003.11
2021-12-07 07:03:00,,0817.5,5.00,0.00,21.8,21.7,00.0,30.8,23.4,10.2,0000.0,0017.55,0005.04,0002.93
2021-12-07 07:04:00,,0817.5,5.00,0.00,21.7,21.5,00.0,30.8,23.2,10.0,0000.0,0016.61,0004.78,0002.75
2021-12-07 07:05:00,,0817.4,5.01,0.00,21.7,21.3,00.0,30.8,23.2,10.3,0000.0,0015.28,0004.48,0002.52
2021-12-07 07:06:00,,0817.5,4.99,0.00,21.6,21.2,00.0,30.8,23.2,10.0,0000.0,0014.19,0004.26,0002.33
2021-12-07 07:07:00,,0817.3,5.01,0.00,21.6,21.1,00.0,30.7,23.2,10.2,0000.0,0013.66,0004.05,0002.13
2021-12-07 07:08:00,,0817.3,4.99,0.00,21.6,21.1,00.0,30.7,23.2,10.4,0000.0,0012.89,0003.75,0001.88
2021-12-07 07:09:00,,0817.2,5.02,0.00,21.6,21.1,00.0,30.7,23.2,10.5,0000.0,0012.04,0003.48,0001.65
2021-12-07 07:10:00,,0817.3,4.99,0.00,21.6,21.0,00.0,30.7,23.2,10.6,0000.0,0011.04,0003.19,0001.42
2021-12-07 07:11:00,,0817.2,5.01,0.00,21.6,21.0,00.0,30.7,23.2,10.7,0000.0,0010.02,0002.86,0001.23
2021-12-07 07:12:00,,0817.3,4.99,0.00,21.6,21.0,00.0,30.7,23.2,10.7,0000.0,0008.69,0002.83,0001.20
2021-12-07 07:13:00,,0817.3,5.00,0.00,21.6,21.0,00.0,30.7,23.2,10.7,0000.0,0008.20,0002.63,0001.13
2021-12-07 07:14:00,,0817.4,5.00,0.00,21.6,20.9,00.0,30.7,23.2,10.7,0000.0,0007.99,0002.40,0001.03
2021-12-07 07:15:00,,0817.3,4.99,0.00,21.5,20.9,00.0,30.7,23.2,10.3,0000.0,0008.10,0002.36,0000.98
2021-12-07 07:16:00,,0817.4,5.01,0.00,21.6,21.5,00.0,30.7,23.3,10.2,0000.0,0008.51,0002.39,0001.00
2021-12-07 07:17:00,,0817.5,5.00,0.00,21.8,22.4,00.0,30.7,23.7,10.0,0000.0,0008.94,0002.42,0001.02
2021-12-07 07:18:00,,0817.5,4.99,0.00,21.9,23.2,00.0,30.8,24.0,10.0,0000.0,0008.54,0002.25,0000.98
2021-12-07 07:19:00,,0817.5,5.02,0.00,22.0,23.0,00.0,30.8,24.0,09.9,0000.0,0008.68,0002.32,0001.01
2021-12-07 07:20:00,,0817.4,5.00,0.00,22.0,22.7,00.0,30.9,23.9,10.0,0000.0,0008.71,0002.36,0001.04
2021-12-07 07:21:00,,0817.3,4.99,0.00,22.0,22.4,00.0,30.9,23.8,10.3,0000.0,0008.64,0002.33,0001.05
2021-12-07 07:22:00,,0817.3,4.98,0.00,22.0,22.1,00.0,30.9,23.7,10.3,0000.0,0008.54,0002.35,0001.06
2021-12-07 07:23:00,,0817.2,5.01,0.00,22.0,21.9,00.0,30.9,23.7,10.4,0000.0,0008.71,0002.33,0001.07
2021-12-07 07:24:00,,0817.4,4.99,0.00,22.0,21.8,00.0,30.9,23.6,10.5,0000.0,0008.74,0002.35,0001.07
2021-12-07 07:25:00,,0817.5,5.00,0.00,21.9,21.7,00.0,30.9,23.6,09.9,0000.0,0009.94,0002.58,0001.15
2021-12-07 07:26:00,,0817.4,5.00,0.00,21.9,21.5,00.0,30.9,23.6,09.4,0000.0,0012.14,0003.03,0001.32
2021-12-07 07:27:00,,0817.4,5.00,0.00,21.9,21.4,00.0,30.9,23.5,09.8,0000.0,0013.52,0003.20,0001.40
2021-12-07 07:28:00,,0817.4,5.01,0.00,21.9,21.4,00.0,30.9,23.5,10.3,0000.0,0012.88,0003.13,0001.35
2021-12-07 07:29:00,,0817.3,4.99,0.00,21.9,21.3,00.0,30.9,23.5,10.4,0000.0,0012.56,0003.07,0001.29
2021-12-07 07:30:00,,0817.4,5.01,0.00,21.8,21.3,00.0,30.9,23.5,10.4,0000.0,0012.19,0002.94,0001.23
2021-12-07 07:31:00,,0817.3,4.99,0.00,21.8,21.2,00.0,30.9,23.4,09.9,0000.0,0013.17,0002.96,0001.25
2021-12-07 07:32:00,,0817.5,4.99,0.00,21.7,21.1,00.0,30.9,23.2,09.6,0000.0,0014.13,0003.21,0001.38
2021-12-07 07:33:00,,0817.4,5.00,0.00,21.7,21.0,00.0,30.8,23.2,09.6,0000.0,0015.25,0003.42,0001.56
2021-12-07 07:34:00,,0817.2,4.99,0.00,21.6,20.9,00.0,30.8,23.2,09.9,0000.0,0015.65,0003.61,0001.69
2021-12-07 07:35:00,,0817.2,4.99,0.00,21.6,20.9,00.0,30.8,23.2,10.3,0000.0,0016.70,0003.69,0001.76
2021-12-07 07:36:00,,0817.1,5.01,0.00,21.6,20.8,00.0,30.8,23.1,10.4,0000.0,0016.70,0003.73,0001.79
2021-12-07 07:37:00,,0817.2,4.99,0.00,21.6,21.1,00.0,30.8,23.2,10.6,0000.0,0015.97,0003.58,0001.67
2021-12-07 07:38:00,,0817.2,5.00,0.00,21.7,22.0,00.0,30.8,23.5,10.6,0000.0,0013.45,0003.29,0001.48
2021-12-07 07:39:00,,0817.2,5.02,0.00,21.9,22.9,00.0,30.9,23.9,10.5,0000.0,0012.89,0003.14,0001.37
2021-12-07 07:40:00,,0817.2,4.99,0.00,22.0,22.9,00.0,30.9,24.0,10.5,0000.0,0012.81,0003.14,0001.37
2021-12-07 07:41:00,,0817.2,5.00,0.00,22.0,22.6,00.0,30.9,23.9,10.6,0000.0,0012.64,0003.12,0001.36
2021-12-07 07:42:00,,0817.4,4.99,0.00,22.0,22.3,00.0,30.9,23.8,10.5,0000.0,0012.43,0003.08,0001.32
2021-12-07 07:43:00,,0817.3,5.01,0.00,22.0,22.1,00.0,30.9,23.7,10.1,0000.0,0011.64,0002.90,0001.22
2021-12-07 07:44:00,,0817.3,4.99,0.00,21.9,21.8,00.0,30.9,23.6,09.7,0000.0,0010.62,0002.80,0001.14
2021-12-07 07:45:00,,0817.4,4.99,0.00,21.9,21.6,00.0,30.9,23.5,09.7,0000.0,0010.24,0002.77,0001.14
2021-12-07 07:46:00,,0817.4,5.00,0.00,21.8,21.4,00.0,30.9,23.4,09.8,0000.0,0009.47,0002.86,0001.17
2021-12-07 07:47:00,,0817.3,5.01,0.00,21.8,21.2,00.0,30.9,23.3,10.0,0000.0,0010.11,0002.97,0001.21
2021-12-07 07:48:00,,0817.3,4.99,0.00,21.7,21.1,00.0,30.9,23.2,10.2,0000.0,0010.00,0003.04,0001.21
2021-12-07 07:49:00,,0817.3,5.01,0.00,21.7,21.0,00.0,30.8,23.2,10.5,0000.0,0009.58,0003.09,0001.23
2021-12-07 07:50:00,,0817.4,4.99,0.00,21.6,21.0,00.0,30.8,23.2,10.3,0000.0,0009.47,0003.14,0001.26
2021-12-07 07:51:00,,0817.4,5.01,0.00,21.6,20.9,00.0,30.8,23.2,10.2,0000.0,0010.16,0003.21,0001.29
2021-12-07 07:52:00,,0817.4,4.99,0.00,21.6,20.9,00.0,30.8,23.1,10.1,0000.0,0011.24,0003.27,0001.35
2021-12-07 07:53:00,,0817.4,5.02,0.00,21.5,20.8,00.0,30.8,23.1,09.7,0000.0,0012.04,0003.48,0001.51
2021-12-07 07:54:00,,0817.4,5.00,0.00,21.5,20.7,00.0,30.7,23.0,09.6,0000.0,0012.73,0003.65,0001.67
2021-12-07 07:55:00,,0817.3,4.98,0.00,21.5,20.7,00.0,30.7,23.0,09.5,0000.0,0012.85,0003.65,0001.75
2021-12-07 07:56:00,,0817.4,5.01,0.00,21.5,21.2,00.0,30.7,23.2,09.5,0000.0,0013.84,0003.79,0001.83
2021-12-07 07:57:00,,0817.3,4.99,0.00,21.7,22.2,00.0,30.8,23.5,09.5,0000.0,0014.83,0003.85,0001.92
2021-12-07 07:58:00,,0817.3,5.01,0.00,21.9,22.9,00.0,30.8,23.8,09.4,0000.0,0015.71,0003.99,0002.01
2021-12-07 07:59:00,,0817.4,5.01,0.00,21.9,22.7,00.0,30.8,23.8,09.4,0000.0,0016.52,0004.18,0002.16
